En Direct

LFST 291430Z AUTO 26014KT 9999 FEW022 BKN062 BKN092 03/M02 Q1012 TEMPO 3000 -SNRA


TAF LFST 291100Z 2912/3012 26008KT 9999 BKN030 PROB40 TEMPO 2915/2922 3000 -SNRA BECMG 3002/3004 20013KT BECMG 3006/3008 20017G27KT PROB40 TEMPO 3005/3008 -SN -SNRA TEMPO 3008/3012 -RA

Nos Avions

7 avions disponibles et entretenus par un atelier agréé, permettant tous types de vols (formation, promenade, voyage…)

l'école de pilotage

PPL, LAPL, Vol de nuit, SEP… Toutes ces formations sont dispensées par nos instructeurs bénévoles.
Formation Théorique Mermoz via la FFA

Notre Plateforme

Nous sommes basés à l’aéroport de Strasbourg-Entzheim (LFST) en plein coeur de l’Alsace qui permet de voyager rapidement outre Rhin, mais également de profiter des paysages variés

Nos réseaux

Suivez-nous sur les réseaux sociaux